Location: Aetna Mine
(37.6183°N, 107.6045°W)
Time: 00:06:17
(UTC+00:00)

Cosmos 1437 Rocket - Pass Details

Date: 18 September 2020
Orbit: 506 x 562 km, 81.2° (Epoch: 27 October)

Event Time Altitude Azimuth Distance (km) Brightness Sun altitude
Rises 12:09:47 0° 175° (S) 2,591 6.2 -9.8°
Reaches altitude 10° 12:11:56 10° 170° (S) 1,712 5.4 -9.4°
Maximum altitude 12:15:33 48° 95° (E) 667 3.8 -8.7°
Drops below altitude 10° 12:19:14 10° 20° (NNE) 1,737 5.8 -8.0°
Sets 12:21:25 0° 15° (NNE) 2,634 6.6 -7.5°
